New Richmond, WI

9:13 PM CDT on June 25, 2017 (GMT -0500)
New Richmond Municipal

Weather History for KRNH - February, 2013

Change the Weather History Date:

Tuesday, February 12, 2013

  Actual Average (KSTP) Record (KSTP)
Temperature  
Mean Temperature 21 °F -  
Max Temperature 32 °F 28 °F 51 °F (2005)
Min Temperature 10 °F 13 °F -5 °F (2003)
Degree Days  
Heating Degree Days 44    
Moisture  
Dew Point 17 °F    
Average Humidity 82    
Maximum Humidity 100    
Minimum Humidity 64    
Precipitation  
Precipitation 0.01 in - - ()
Sea Level Pressure  
Sea Level Pressure 29.90 in    
Wind  
Wind Speed 8 mph (SW)    
Max Wind Speed 14 mph    
Max Gust Speed 17 mph    
Visibility 10 miles    
Events Snow    
Averages and records for this station are not official NWS values.
T = Trace of Precipitation, MM = Missing Value Source: NWS Daily Summary

Daily Weather History Graph

Daily Weather History Graph

Search for Another Location

Airport or City:

Trip Planner

Search our weather history database for the weather conditions in past years. The results will help you decide how hot, cold, wet, or windy it might be!

Date:

Astronomy

Feb. 12, 2013 Rise Set
Actual Time 7:15 AM CST 5:34 PM CST
Civil Twilight 6:44 AM CST 6:04 PM CST
Nautical Twilight 6:10 AM CST 6:39 PM CST
Astronomical Twilight 5:36 AM CST 7:13 PM CST
Moon 8:03 AM CST (2/12) 8:46 PM CST (2/12)
Length of Visible Light 11h 19m
Length of Day
10h 18m
Waxing Crescent, 7% of the Moon is Illuminated
Feb 12
Waxing Crescent
Feb 17
First Quarter
Feb 25
Full
Mar 4
Last Quarter
Mar 11
New

Hourly Weather History & Observations

Time (CST) Temp. Windchill Dew Point Humidity Pressure Visibility Wind Dir Wind Speed Gust Speed Precip Events Conditions
12:15 AM 19.4 °F 8.6 °F 14.0 °F 80% 30.00 in 10.0 mi West 9.2 mph - N/A Snow Light Snow
12:35 AM 19.4 °F 7.9 °F 14.0 °F 80% 30.00 in 10.0 mi West 10.4 mph - N/A   Overcast
12:55 AM 17.6 °F 6.4 °F 14.0 °F 86% 30.00 in 10.0 mi West 9.2 mph - N/A   Overcast
1:15 AM 17.6 °F 7.3 °F 12.2 °F 79% 30.00 in 10.0 mi West 8.1 mph - N/A   Overcast
1:35 AM 15.8 °F 7.2 °F 12.2 °F 86% 30.00 in 10.0 mi West 5.8 mph - N/A   Mostly Cloudy
1:55 AM 14.0 °F 3.9 °F 10.4 °F 86% 30.00 in 10.0 mi WSW 6.9 mph - N/A   Scattered Clouds
2:15 AM 14.0 °F 3.9 °F 12.2 °F 93% 30.00 in 10.0 mi WSW 6.9 mph - N/A   Overcast
2:35 AM 14.0 °F 3.9 °F 12.2 °F 93% 30.01 in 10.0 mi WSW 6.9 mph - N/A   Overcast
2:55 AM 12.2 °F 2.9 °F 10.4 °F 92% 30.00 in 10.0 mi WSW 5.8 mph - N/A   Scattered Clouds
3:15 AM 12.2 °F 1.7 °F 10.4 °F 92% 30.00 in 10.0 mi WSW 6.9 mph - N/A   Clear
3:35 AM 12.2 °F 2.9 °F 10.4 °F 92% 29.99 in 10.0 mi WSW 5.8 mph - N/A   Clear
3:55 AM 12.2 °F 4.3 °F 10.4 °F 92% 29.99 in 10.0 mi SW 4.6 mph - N/A   Clear
4:15 AM 10.4 °F 4.0 °F 10.4 °F 100% 29.99 in 10.0 mi SW 3.5 mph - N/A   Clear
4:35 AM 10.4 °F 2.2 °F 8.6 °F 92% 29.99 in 10.0 mi SW 4.6 mph - N/A   Clear
4:55 AM 10.4 °F 0.8 °F 10.4 °F 100% 29.99 in 10.0 mi SSW 5.8 mph - N/A   Clear
5:15 AM 12.2 °F 2.9 °F 10.4 °F 92% 29.99 in 10.0 mi SSW 5.8 mph - N/A Snow Light Snow
5:35 AM 12.2 °F 2.9 °F 12.2 °F 100% 29.99 in 10.0 mi SSW 5.8 mph - N/A Snow Light Snow
5:55 AM 14.0 °F 5.1 °F 12.2 °F 93% 29.99 in 7.0 mi SSW 5.8 mph - N/A Snow Light Snow
6:15 AM 14.0 °F 6.5 °F 14.0 °F 100% 29.98 in 10.0 mi South 4.6 mph - N/A   Overcast
6:35 AM 15.8 °F 8.6 °F 14.0 °F 93% 29.98 in 10.0 mi South 4.6 mph - N/A   Overcast
6:55 AM 17.6 °F 12.3 °F 14.0 °F 86% 29.97 in 10.0 mi South 3.5 mph - N/A   Overcast
7:15 AM 17.6 °F 10.7 °F 14.0 °F 86% 29.97 in 10.0 mi South 4.6 mph - N/A   Overcast
7:35 AM 17.6 °F 8.2 °F 14.0 °F 86% 29.97 in 10.0 mi South 6.9 mph - N/A   Overcast
7:55 AM 17.6 °F 9.3 °F 14.0 °F 86% 29.97 in 10.0 mi South 5.8 mph - N/A   Mostly Cloudy
8:15 AM 17.6 °F 9.3 °F 14.0 °F 86% 29.97 in 10.0 mi South 5.8 mph - N/A   Scattered Clouds
8:35 AM 17.6 °F 7.3 °F 14.0 °F 86% 29.96 in 10.0 mi South 8.1 mph - N/A   Clear
8:55 AM 19.4 °F 9.5 °F 14.0 °F 80% 29.95 in 10.0 mi South 8.1 mph - N/A   Clear
9:15 AM 19.4 °F 7.9 °F 14.0 °F 80% 29.95 in 10.0 mi South 10.4 mph - N/A   Clear
9:35 AM 21.2 °F 9.5 °F 15.8 °F 80% 29.95 in 10.0 mi South 11.5 mph - N/A   Clear
9:55 AM 21.2 °F 11.7 °F 15.8 °F 80% 29.94 in 10.0 mi South 8.1 mph - N/A   Clear
10:15 AM 23.0 °F 12.4 °F 17.6 °F 80% 29.93 in 10.0 mi South 10.4 mph - N/A   Clear
10:35 AM 23.0 °F 12.4 °F 17.6 °F 80% 29.92 in 10.0 mi South 10.4 mph - N/A   Clear
10:55 AM 26.6 °F 15.7 °F 19.4 °F 74% 29.91 in 10.0 mi South 12.7 mph - N/A   Clear
11:15 AM 26.6 °F 16.2 °F 19.4 °F 74% 29.90 in 10.0 mi South 11.5 mph - N/A   Clear
11:35 AM 26.6 °F 15.7 °F 19.4 °F 74% 29.90 in 10.0 mi South 12.7 mph - N/A   Clear
11:55 AM 28.4 °F 17.5 °F 21.2 °F 74% 29.89 in 10.0 mi SSW 13.8 mph - N/A   Clear
12:15 PM 28.4 °F 19.1 °F 21.2 °F 74% 29.87 in 10.0 mi SSW 10.4 mph - N/A   Clear
12:35 PM 30.2 °F 21.3 °F 21.2 °F 69% 29.87 in 10.0 mi South 10.4 mph - N/A   Clear
12:55 PM 30.2 °F 22.6 °F 21.2 °F 69% 29.85 in 10.0 mi SSW 8.1 mph - N/A   Clear
1:15 PM 32.0 °F 24.2 °F 21.2 °F 64% 29.85 in 10.0 mi SW 9.2 mph - N/A   Clear
1:35 PM 32.0 °F 23.6 °F 21.2 °F 64% 29.84 in 10.0 mi SW 10.4 mph 17.3 mph N/A   Scattered Clouds
1:55 PM 32.0 °F 22.5 °F 21.2 °F 64% 29.83 in 10.0 mi SW 12.7 mph - 0.01 in   Scattered Clouds
2:15 PM 32.0 °F 23.0 °F 21.2 °F 64% 29.83 in 10.0 mi SW 11.5 mph - N/A   Clear
2:35 PM 32.0 °F 24.2 °F 23.0 °F 69% 29.83 in 10.0 mi SW 9.2 mph - N/A   Clear
2:55 PM 32.0 °F 24.8 °F 23.0 °F 69% 29.82 in 10.0 mi SSW 8.1 mph - N/A   Clear
3:15 PM 32.0 °F 23.6 °F 23.0 °F 69% 29.82 in 10.0 mi SW 10.4 mph - N/A   Clear
3:35 PM 32.0 °F 22.5 °F 23.0 °F 69% 29.82 in 10.0 mi SW 12.7 mph - N/A   Clear
3:55 PM 32.0 °F 22.5 °F 23.0 °F 69% 29.82 in 10.0 mi SW 12.7 mph - N/A   Clear
4:15 PM 32.0 °F 23.6 °F 23.0 °F 69% 29.82 in 10.0 mi SW 10.4 mph - N/A   Clear
4:35 PM 32.0 °F 24.8 °F 23.0 °F 69% 29.82 in 10.0 mi SW 8.1 mph - N/A   Clear
4:55 PM 32.0 °F 24.8 °F 23.0 °F 69% 29.82 in 10.0 mi SW 8.1 mph - N/A   Clear
5:15 PM 32.0 °F 26.4 °F 23.0 °F 69% 29.82 in 10.0 mi SW 5.8 mph - N/A   Clear
5:35 PM 30.2 °F 24.3 °F 23.0 °F 75% 29.82 in 10.0 mi SSW 5.8 mph - N/A   Clear
5:55 PM 28.4 °F 23.3 °F 23.0 °F 80% 29.82 in 10.0 mi SW 4.6 mph - N/A   Clear
6:15 PM 28.4 °F 24.6 °F 21.2 °F 74% 29.82 in 10.0 mi SW 3.5 mph - N/A   Clear
6:35 PM 26.6 °F 22.6 °F 21.2 °F 80% 29.82 in 10.0 mi SW 3.5 mph - N/A   Clear
6:55 PM 26.6 °F 20.0 °F 21.2 °F 80% 29.82 in 10.0 mi WSW 5.8 mph - N/A   Clear
7:15 PM 23.0 °F 18.4 °F 19.4 °F 86% 29.82 in 10.0 mi SW 3.5 mph - N/A   Clear
7:35 PM 24.8 °F 16.9 °F 19.4 °F 80% 29.82 in 10.0 mi SW 6.9 mph - N/A   Clear
8:15 PM 24.8 °F 16.9 °F 19.4 °F 80% 29.80 in 10.0 mi SW 6.9 mph - N/A   Clear
8:35 PM 23.0 °F 14.7 °F 19.4 °F 86% 29.81 in 10.0 mi WSW 6.9 mph - N/A   Clear
8:55 PM 23.0 °F 14.7 °F 19.4 °F 86% 29.82 in 10.0 mi West 6.9 mph - N/A   Clear
9:15 PM 23.0 °F 14.7 °F 19.4 °F 86% 29.81 in 10.0 mi West 6.9 mph - N/A   Clear
9:35 PM 23.0 °F 14.7 °F 19.4 °F 86% 29.81 in 10.0 mi West 6.9 mph - N/A   Clear
9:55 PM 23.0 °F 15.8 °F 19.4 °F 86% 29.80 in 10.0 mi WSW 5.8 mph - N/A   Clear
10:15 PM 21.2 °F 13.6 °F 19.4 °F 93% 29.79 in 10.0 mi WSW 5.8 mph - N/A   Clear
10:35 PM 21.2 °F 12.6 °F 17.6 °F 86% 29.79 in 10.0 mi SW 6.9 mph - N/A   Clear
10:55 PM 19.4 °F 14.3 °F 17.6 °F 93% 29.79 in 10.0 mi WSW 3.5 mph - N/A   Clear
11:15 PM 19.4 °F 12.8 °F 17.6 °F 93% 29.79 in 10.0 mi WSW 4.6 mph - N/A   Clear
11:35 PM 19.4 °F 12.8 °F 17.6 °F 93% 29.78 in 10.0 mi SW 4.6 mph - N/A   Mostly Cloudy
11:55 PM 21.2 °F 16.4 °F 19.4 °F 93% 29.78 in 10.0 mi SW 3.5 mph - N/A   Overcast